Weather History for Camdenton, MO

Change the Weather History Date:

Thursday, December 27, 2012

  Actual Average (KAIZ) Record (KAIZ)
Temperature  
Mean Temperature 27 °F -  
Max Temperature 35 °F 40 °F 69 °F (2008)
Min Temperature 19 °F 23 °F 8 °F (2010)
Degree Days  
Heating Degree Days 38    
Moisture  
Dew Point 22 °F    
Average Humidity 77    
Maximum Humidity 100    
Minimum Humidity 60    
Precipitation  
Precipitation 0.00 in - - ()
Sea Level Pressure  
Sea Level Pressure 30.06 in    
Wind  
Wind Speed 5 mph (ESE)    
Max Wind Speed 16 mph    
Max Gust Speed 23 mph    
Visibility 10 miles    
Events      
Averages and records for this station are not official NWS values.
T = Trace of Precipitation, MM = Missing Value Source: NWS Daily Summary

Daily Weather History Graph

Daily Weather History Graph

Search for Another Location

Airport:

Trip Planner

Search our weather history database for the weather conditions in past years. The results will help you decide how hot, cold, wet, or windy it might be!

Date:

Astronomy

Dec. 27, 2012 Rise Set
Actual Time 7:25 AM CST 4:58 PM CST
Civil Twilight 6:56 AM CST 5:28 PM CST
Nautical Twilight 6:23 AM CST 6:01 PM CST
Astronomical Twilight 5:51 AM CST 6:33 PM CST
Moon 4:41 PM CST (12/27) 6:37 AM CST (12/27)
Length of Visible Light 10h 31m
Length of Day
9h 32m
Full, 100% of the Moon is Illuminated
Dec 27
Full
Dec 28
Full
Jan 4
Last Quarter
Jan 11
New
Jan 18
First Quarter

Hourly Weather History & Observations

Time (CST) Temp. Windchill Dew Point Humidity Pressure Visibility Wind Dir Wind Speed Gust Speed Precip Events Conditions
12:15 AM 23.0 °F 18.4 °F 17.6 °F 80% 30.12 in 10.0 mi NE 3.5 mph - N/A   Clear
12:35 AM 21.2 °F - 17.6 °F 86% 30.13 in 10.0 mi Calm Calm - N/A   Clear
12:55 AM 21.2 °F - 17.6 °F 86% 30.14 in 10.0 mi Calm Calm - N/A   Clear
1:15 AM 23.0 °F - 17.6 °F 80% 30.14 in 10.0 mi Calm Calm - N/A   Clear
1:35 AM 21.2 °F - 17.6 °F 86% 30.15 in 10.0 mi Calm Calm - N/A   Clear
1:55 AM 21.2 °F - 17.6 °F 86% 30.14 in 10.0 mi Calm Calm - N/A   Clear
2:15 AM 21.2 °F - 17.6 °F 86% 30.15 in 10.0 mi Calm Calm - N/A   Mostly Cloudy
2:35 AM 21.2 °F - 19.4 °F 93% 30.14 in 10.0 mi Calm Calm - N/A   Overcast
2:55 AM 21.2 °F - 17.6 °F 86% 30.15 in 10.0 mi Calm Calm - N/A   Scattered Clouds
3:15 AM 21.2 °F - 17.6 °F 86% 30.16 in 10.0 mi Calm Calm - N/A   Clear
3:55 AM 21.2 °F - 19.4 °F 93% 30.15 in 10.0 mi Calm Calm - N/A   Clear
4:15 AM 23.0 °F - 19.4 °F 86% 30.15 in 10.0 mi Calm Calm - N/A   Clear
4:35 AM 21.2 °F - 19.4 °F 93% 30.16 in 10.0 mi Calm Calm - N/A   Clear
4:55 AM 23.0 °F - 19.4 °F 86% 30.14 in 10.0 mi Calm Calm - N/A   Clear
5:15 AM 21.2 °F 13.6 °F 17.6 °F 86% 30.11 in 10.0 mi ENE 5.8 mph - N/A   Clear
5:35 AM 19.4 °F - 19.4 °F 100% 30.12 in 10.0 mi Calm Calm - N/A   Clear
5:55 AM 21.2 °F - 19.4 °F 93% 30.12 in 10.0 mi Calm Calm - N/A   Clear
6:15 AM 21.2 °F 16.4 °F 19.4 °F 93% 30.12 in 10.0 mi East 3.5 mph - N/A   Clear
6:35 AM 23.0 °F 18.4 °F 19.4 °F 86% 30.12 in 10.0 mi ENE 3.5 mph - N/A   Clear
6:55 AM 23.0 °F 15.8 °F 19.4 °F 86% 30.11 in 10.0 mi East 5.8 mph - N/A   Clear
7:15 AM 23.0 °F - 19.4 °F 86% 30.12 in 10.0 mi Calm Calm - N/A   Clear
7:35 AM 23.0 °F 18.4 °F 21.2 °F 93% 30.13 in 10.0 mi East 3.5 mph - N/A   Clear
7:55 AM 23.0 °F 18.4 °F 21.2 °F 93% 30.13 in 10.0 mi East 3.5 mph - N/A   Clear
8:15 AM 23.0 °F - 21.2 °F 93% 30.14 in 10.0 mi Calm Calm - N/A   Clear
8:35 AM 24.8 °F 16.9 °F 21.2 °F 86% 30.14 in 10.0 mi East 6.9 mph - N/A   Clear
8:55 AM 26.6 °F 16.8 °F 23.0 °F 86% 30.12 in 10.0 mi East 10.4 mph - N/A   Clear
9:15 AM 28.4 °F 18.0 °F 23.0 °F 80% 30.12 in 10.0 mi ESE 12.7 mph 20.7 mph N/A   Clear
9:35 AM 28.4 °F 18.0 °F 23.0 °F 80% 30.12 in 10.0 mi ESE 12.7 mph - N/A   Clear
9:55 AM 28.4 °F 18.5 °F 21.2 °F 74% 30.11 in 10.0 mi ESE 11.5 mph - N/A   Clear
10:35 AM 30.2 °F 20.8 °F 21.2 °F 69% 30.11 in 10.0 mi ESE 11.5 mph 16.1 mph N/A   Clear
10:55 AM 32.0 °F 22.1 °F 23.0 °F 69% 30.10 in 10.0 mi ESE 13.8 mph - N/A   Clear
11:15 AM 32.0 °F 24.8 °F 23.0 °F 69% 30.10 in 10.0 mi East 8.1 mph - N/A   Clear
11:35 AM 32.0 °F 23.6 °F 23.0 °F 69% 30.08 in 10.0 mi ESE 10.4 mph - N/A   Clear
11:55 AM 32.0 °F 23.6 °F 21.2 °F 64% 30.06 in 10.0 mi SE 10.4 mph - N/A   Clear
12:15 PM 32.0 °F 24.2 °F 21.2 °F 64% 30.05 in 10.0 mi ESE 9.2 mph - N/A   Clear
12:35 PM 32.0 °F 25.6 °F 23.0 °F 69% 30.04 in 10.0 mi ESE 6.9 mph - N/A   Clear
12:55 PM 33.8 °F 25.8 °F 23.0 °F 65% 30.04 in 10.0 mi SE 10.4 mph - N/A   Clear
1:15 PM 33.8 °F 27.0 °F 23.0 °F 65% 30.04 in 10.0 mi ESE 8.1 mph - N/A   Clear
1:35 PM 33.8 °F 29.6 °F 23.0 °F 65% 30.03 in 10.0 mi ESE 4.6 mph - N/A   Clear
1:55 PM 33.8 °F 27.7 °F 23.0 °F 65% 30.02 in 10.0 mi SE 6.9 mph - N/A   Clear
2:15 PM 35.6 °F 28.0 °F 23.0 °F 60% 30.01 in 10.0 mi ESE 10.4 mph - N/A   Clear
2:35 PM 35.6 °F 27.1 °F 23.0 °F 60% 30.00 in 10.0 mi ESE 12.7 mph - N/A   Clear
2:55 PM 35.6 °F 27.5 °F 23.0 °F 60% 30.00 in 10.0 mi East 11.5 mph - N/A   Clear
3:15 PM 35.6 °F 28.6 °F 23.0 °F 60% 30.00 in 10.0 mi ESE 9.2 mph - N/A   Clear
3:35 PM 35.6 °F 28.0 °F 23.0 °F 60% 30.00 in 10.0 mi East 10.4 mph - N/A   Clear
3:55 PM 35.6 °F 29.2 °F 23.0 °F 60% 30.00 in 10.0 mi ESE 8.1 mph - N/A   Clear
4:15 PM 33.8 °F 27.0 °F 23.0 °F 65% 29.99 in 10.0 mi ESE 8.1 mph - N/A   Clear
4:35 PM 33.8 °F 27.0 °F 23.0 °F 65% 29.99 in 10.0 mi ESE 8.1 mph - N/A   Clear
4:55 PM 33.8 °F 26.4 °F 23.0 °F 65% 29.97 in 10.0 mi ESE 9.2 mph - N/A   Clear
5:15 PM 33.8 °F 25.8 °F 23.0 °F 65% 29.97 in 10.0 mi ESE 10.4 mph - N/A   Clear
5:35 PM 33.8 °F 25.8 °F 23.0 °F 65% 29.97 in 10.0 mi ESE 10.4 mph - N/A   Clear
5:55 PM 32.0 °F 23.6 °F 23.0 °F 69% 29.97 in 10.0 mi East 10.4 mph - N/A   Clear
6:15 PM 32.0 °F 23.6 °F 23.0 °F 69% 29.97 in 10.0 mi ESE 10.4 mph - N/A   Clear
6:35 PM 32.0 °F 22.1 °F 24.8 °F 75% 29.97 in 10.0 mi ESE 13.8 mph - N/A   Clear
6:55 PM 32.0 °F 22.1 °F 24.8 °F 75% 29.97 in 10.0 mi ESE 13.8 mph - N/A   Clear
7:15 PM 32.0 °F 22.5 °F 24.8 °F 75% 29.97 in 10.0 mi ESE 12.7 mph - N/A   Clear
7:35 PM 32.0 °F 22.5 °F 24.8 °F 75% 29.97 in 10.0 mi ESE 12.7 mph 17.3 mph N/A   Clear
7:55 PM 32.0 °F 22.5 °F 24.8 °F 75% 29.97 in 10.0 mi ESE 12.7 mph 23.0 mph N/A   Clear
8:15 PM 32.0 °F 22.5 °F 24.8 °F 75% 29.96 in 10.0 mi ESE 12.7 mph 18.4 mph N/A   Clear
8:35 PM 32.0 °F 22.5 °F 24.8 °F 75% 29.96 in 10.0 mi ESE 12.7 mph 17.3 mph N/A   Clear
8:55 PM 32.0 °F 21.6 °F 24.8 °F 75% 29.96 in 10.0 mi SE 15.0 mph 18.4 mph N/A   Clear
9:15 PM 32.0 °F 22.1 °F 24.8 °F 75% 29.96 in 10.0 mi SE 13.8 mph 20.7 mph N/A   Mostly Cloudy
9:35 PM 32.0 °F 21.2 °F 24.8 °F 75% 29.97 in 10.0 mi SE 16.1 mph 21.9 mph N/A   Overcast
9:55 PM 32.0 °F 22.5 °F 24.8 °F 75% 29.97 in 10.0 mi SE 12.7 mph 16.1 mph N/A   Overcast
10:15 PM 32.0 °F 23.0 °F 24.8 °F 75% 29.97 in 10.0 mi SE 11.5 mph 18.4 mph N/A   Overcast
10:35 PM 32.0 °F 24.2 °F 24.8 °F 75% 29.97 in 10.0 mi SE 9.2 mph - N/A   Overcast
10:55 PM 32.0 °F 23.6 °F 24.8 °F 75% 29.99 in 10.0 mi SSE 10.4 mph - N/A   Overcast
11:35 PM 32.0 °F 24.8 °F 24.8 °F 75% 30.00 in 10.0 mi South 8.1 mph - N/A   Overcast
11:55 PM 32.0 °F 24.2 °F 24.8 °F 75% 29.99 in 10.0 mi SSE 9.2 mph - N/A   Overcast